Regional Weather Roundup
Issued by NWS Sioux Falls, SD

Home | Current Version | Previous Version | Graphics & Text | Print | Product List | Glossary Off
Versions: 1 2 3 4 5 6 7 8 9 10 11 12 13 14 15 16 17 18 19 20 21 22 23 24 25 26 27 28 29 30 31 32 33 34 35 36 37 38 39 40 41 42 43 44 45 46 47 48 49 50

387
ASUS43 KFSD 242210
RWRFSD

WEATHER ROUNDUP FOR SE SOUTH DAKOTA/SW MINNESOTA/NW IOWA
NATIONAL WEATHER SERVICE SIOUX FALLS SD
400 PM CST SAT FEB 24 2018

NOTE: "FAIR" INDICATES FEW OR NO CLOUDS BELOW 12,000 FEET WITH NO
SIGNIFICANT WEATHER AND OR OBSTRUCTIONS TO VISIBILITY.


SDZ038>040-050-052>070-242300-
SOUTHEAST SOUTH DAKOTA

CITY           SKY/WX    TMP DP  RH WIND       PRES   REMARKS
BROOKINGS      CLOUDY    19  14  81 SE7       29.65F WCI  10
CHAMBERLAIN    PTSUNNY   20  15  81 W8        29.68R WCI  10
HURON          CLOUDY    18  15  88 NW7       29.68F WCI   9
MADISON        MOCLDY    19  19 100 S9        29.64F WCI   9
MITCHELL       CLOUDY    18  14  84 NW5       29.70F WCI  11
SIOUX FALLS    CLOUDY    21  17  84 SW7       29.65F WCI  12
WINNER         CLOUDY    23  16  74 NW16      29.67R WCI  10
YANKTON        CLOUDY    24  19  81 S8        29.67F WCI  15
$$

MNZ071-072-080-081-089-090-097-098-242300-
SOUTHWEST MINNESOTA

CITY           SKY/WX    TMP DP  RH WIND       PRES   REMARKS
FAIRMONT       SNOW      25  21  86 N6        29.67F VSB 1/2 WCI  18
JACKSON        LGT SNOW  19  18  93 E7        29.65F WCI  10
LUVERNE        LGT SNOW  21  18  86 SE5       29.65F WCI  15
MARSHALL       LGT SNOW  18  14  86 S6        29.68F VSB 3/4 WCI   9
MONTEVIDEO     LGT SNOW  23  21  93 SE9       29.68F VSB 3/4 WCI  13
PIPESTONE      LGT SNOW  18  16  93 SE7       29.63F WCI   8
REDWOOD FALLS  LGT SNOW  22  20  92 E10       29.68F VSB 3/4 WCI  11
TRACY          LGT SNOW  17  15  94 SE8       29.65F VSB 3/4 WCI   6
WORTHINGTON    LGT SNOW  20  16  84 E5        29.64F VSB 3/4 WCI  13
$$

IAZ001>003-012>014-020>022-031-032-NEZ013-014-SDZ071-242300-
NORTHWEST IOWA

CITY           SKY/WX    TMP DP  RH WIND       PRES   REMARKS
CHEROKEE       MIX PCPN  26  25  97 S5        29.67F WCI  20
DENISON        CLOUDY    27  27 100 CALM      29.67F FOG
ESTHERVILLE    LGT SNOW  20  17  88 N7        29.66F VSB 3/4 WCI  11
LE MARS        CLOUDY    23  21  93 S8        29.68F WCI  14
ORANGE CITY    LGT SNOW  23  23 100 S6        29.66F WCI  16
SHELDON        LGT SNOW  23  23 100 SE6       29.64F WCI  16
SIOUX CITY     CLOUDY    24  21  88 SW3       29.69F
SPENCER        SNOW      22  19  89 NE6       29.65F VSB 1/2 WCI  14
STORM LAKE     CLOUDY    25  25 100 SE5       29.65F FOG     WCI  19
$$

ABBREVIATIONS USED IN REMARKS
   TC - TEMPERATURE IN CELSIUS
  WCI - WIND CHILL INDEX
   HX - HEAT INDEX
  VSB - VISIBILITY





USA.gov is the U.S. government's official web portal to all federal, state and local government web resources and services.